[Iaude] MPEC M76: 2018 MV6 [a=2.65,e=0.73,i=3.9,H=22.7]

mpec at mpcdb1.cfa.harvard.edu mpec at mpcdb1.cfa.harvard.edu
Thu Jun 21 19:37:17 EDT 2018


M.P.E.C. 2018-M76                                Issued 2018 June 21, 23:34 UT
 
     The Minor Planet Electronic Circulars contain information on unusual
         minor planets and routine data on comets.  They are published
    on behalf of Division F of the International Astronomical Union by the
          Minor Planet Center, Smithsonian Astrophysical Observatory,
                          Cambridge, MA 02138, U.S.A.

             Prepared using the Tamkin Foundation Computer Network

                              MPC at CFA.HARVARD.EDU
            URL https://www.minorplanetcenter.net/    ISSN 1523-6714


                                   2018 MV6
 
Observations:
     K18M06V  C2018 06 15.47624619 13 10.629-32 32 26.60         21.2 GVEM076F51
     K18M06V  C2018 06 15.49565819 13 12.858-32 33 01.68         21.1 GVEM076F51
     K18M06V  C2018 06 15.50535719 13 13.956-32 33 18.63               VEM076F51
     K18M06V* C2018 06 18.46551 19 20 30.169-34 12 15.13         20.7 wUEM076F51
     K18M06V  C2018 06 18.47714 19 20 31.921-34 12 41.84         21.3 wUEM076F51
     K18M06V  C2018 06 18.48878 19 20 33.676-34 13 08.45         21.3 wUEM076F51
     K18M06V  C2018 06 18.50042 19 20 35.431-34 13 35.06         20.8 wUEM076F51
     K18M06V |C2018 06 19.21629 19 22 41.02 -34 41 07.1          21.1 GUEM076807
     K18M06V |C2018 06 19.21792 19 22 41.35 -34 41 11.7          20.8 GUEM076807
     K18M06V |C2018 06 19.22038 19 22 41.77 -34 41 17.3          20.9 GUEM076807
     K18M06V  C2018 06 21.45729519 30 19.934-36 22 13.88         20.8 GVEM076F51
 
Observer details:
807 Cerro Tololo.  Observers T. Linder, R. Holmes.  1.00-m f/10.0 astrograph
    + CCD.
F51 Pan-STARRS 1, Haleakala.  Observers J. Bulger, T. Lowe, A. Schultz,
    M. Willman.  Measurers K. Chambers, S. Chastel, L. Denneau, H. Flewelling,
    M. Huber, E. Magnier, Y. Ramanjooloo, R. Wainscoat, C. Waters, R. Weryk.
    1.8-m Ritchey-Chretien + CCD.
 
Orbital elements:
2018 MV6                                                 Earth MOID = 0.0202 AU
Epoch 2018 Mar. 23.0 TT = JDT 2458200.5                 MPC
M 325.42130              (2000.0)            P               Q
n   0.22855761     Peri.  307.29703     +0.99817229     -0.02583383
a   2.6493475      Node    54.24724     +0.04699490     +0.90018597
e   0.7326383      Incl.    3.86000     -0.03799417     +0.43473882
P   4.31           H   22.7           G   0.15           U   7
Residuals in seconds of arc
180615 F51  0.1+  0.2+    180618 F51  0.1-  0.1+    180619 807  0.7+  0.6-
180615 F51  0.1+  0.3-    180618 F51  0.0   0.1+    180619 807  0.9+  0.2-
180615 F51  0.1-  0.0     180618 F51  0.0   0.0     180621 F51  0.1-  0.0
180618 F51  0.0   0.2+    180619 807  0.1-  0.0

Ephemeris:
2018 MV6                 a,e,i = 2.65, 0.73, 4                   q = 0.7083
Date    TT    R. A. (2000) Decl.     Delta      r     Elong.  Phase     V
2018 05 22    18 40 29.6 -26 32 43   0.6222  1.5481   141.4    24.1    23.7
...
2018 06 06    18 57 35.6 -29 09 45   0.4018  1.3818   151.7    20.4    22.4
...
2018 06 14    19 10 09.1 -31 50 55   0.2959  1.2913   155.9    18.8    21.6
...
2018 06 20    19 25 07.7 -35 13 50   0.2218  1.2231   156.8    19.1    20.8
2018 06 21    19 28 35.5 -35 59 19   0.2099  1.2117   156.6    19.5    20.7
2018 06 22    19 32 29.3 -36 49 24   0.1982  1.2004   156.3    19.9    20.6
...
2018 06 28    20 13 01.2 -44 12 31   0.1317  1.1323   149.8    26.9    19.8
...
2018 07 06    00 44 32.2 -55 52 43   0.06828 1.0428   110.7    65.8    19.3
...
2018 07 21    05 48 24.1 +04 04 40   0.1682  0.8856    36.0   137.5    25.1

A. U. Tomatic                (C) Copyright 2018 MPC           M.P.E.C. 2018-M76



More information about the Iaude mailing list